Location: Peebles
(55.6412°N, 3.1714°W)
Time: 16:19:47
(UTC+01:00)

USA 281 - Pass Details

Date: 26 January 2022
Orbit: 1070 x 1089 km, 106.0° (Epoch: 25 March)

Event Time Altitude Azimuth Distance (km) Brightness Sun altitude
Rises 03:19:43 0° 30° (NNE) 3,904 6.8 -40.7°
Reaches altitude 10° 03:22:16 10° 26° (NNE) 2,946 6.0 -40.4°
Enters shadow 03:25:32 30° 14° (NNE) 1,837 4.6 -40.0°
